• In Uzbekistan
  • List of Countries
  • For 7 days
  • Water Temperature
  • Satellite Maps
  • Weather Map
  • Weather Widgets
  • user-avatar
    Login

    Hourly Weather Lusaka

    Today, 16 October, Tuesday

    Time Temperature Precipitation Wind Pressure Humidity
    00:00 +26°C° 0 mm 1 mps 657 mmHg 35%
    01:00 +25°C° 0 mm 1 mps 657 mmHg 37%
    02:00 +25°C° 0 mm 1 mps 657 mmHg 39%
    03:00 +25°C° 0 mm 2 mps 657 mmHg 42%
    04:00 +24°C° 0 mm 2 mps 657 mmHg 44%
    05:00 +24°C° 0 mm 2 mps 657 mmHg 46%
    06:00 +25°C° 0 mm 2 mps 658 mmHg 43%
    07:00 +27°C° 0 mm 3 mps 658 mmHg 40%
    08:00 +28°C° 0 mm 3 mps 659 mmHg 37%
    09:00 +30°C° 0 mm 3 mps 659 mmHg 32%
    10:00 +34°C° 0 mm 3 mps 660 mmHg 27%
    11:00 +36°C° 0 mm 3 mps 660 mmHg 21%
    12:00 +36°C° 0 mm 3 mps 659 mmHg 22%
    13:00 +35°C° 0 mm 3 mps 658 mmHg 22%
    14:00 +35°C° 0 mm 3 mps 657 mmHg 22%
    15:00 +35°C° 0 mm 3 mps 657 mmHg 23%
    16:00 +34°C° 0 mm 4 mps 657 mmHg 23%
    17:00 +34°C° 0 mm 4 mps 657 mmHg 23%
    18:00 +31°C° 0.1 mm 3 mps 657 mmHg 26%
    19:00 +29°C° 0.1 mm 3 mps 657 mmHg 28%
    20:00 +28°C° 0.1 mm 2 mps 657 mmHg 30%
    21:00 +28°C° 0 mm 2 mps 657 mmHg 28%
    22:00 +27°C° 0 mm 2 mps 657 mmHg 27%
    23:00 +27°C° 0 mm 1 mps 658 mmHg 26%

    Tomorrow, 17 October, Wednesday

    Time Temperature Precipitation Wind Pressure Humidity
    00:00 +27°C° 0 mm 1 mps 657 mmHg 26%
    01:00 +26°C° 0 mm 1 mps 657 mmHg 27%
    02:00 +26°C° 0 mm 1 mps 656 mmHg 27%
    03:00 +25°C° 0 mm 2 mps 656 mmHg 32%
    04:00 +24°C° 0 mm 2 mps 656 mmHg 38%
    05:00 +24°C° 0 mm 3 mps 656 mmHg 43%
    06:00 +25°C° 0 mm 3 mps 657 mmHg 41%
    07:00 +27°C° 0 mm 4 mps 658 mmHg 39%
    08:00 +29°C° 0 mm 4 mps 658 mmHg 37%
    09:00 +32°C° 0 mm 4 mps 659 mmHg 32%
    10:00 +34°C° 0 mm 4 mps 659 mmHg 27%
    11:00 +36°C° 0 mm 3 mps 659 mmHg 21%
    12:00 +36°C° 0.1 mm 3 mps 658 mmHg 22%
    13:00 +35°C° 0.1 mm 3 mps 657 mmHg 23%
    14:00 +34°C° 0.1 mm 2 mps 656 mmHg 24%
    15:00 +34°C° 0 mm 2 mps 656 mmHg 25%
    16:00 +34°C° 0 mm 2 mps 655 mmHg 26%
    17:00 +32°C° 0 mm 2 mps 655 mmHg 27%
    18:00 +31°C° 0 mm 2 mps 656 mmHg 29%
    19:00 +30°C° 0 mm 2 mps 656 mmHg 32%
    20:00 +28°C° 0 mm 2 mps 656 mmHg 35%
    21:00 +28°C° 0 mm 2 mps 656 mmHg 37%
    22:00 +27°C° 0 mm 2 mps 656 mmHg 38%
    23:00 +26°C° 0 mm 2 mps 656 mmHg 40%

    Day after tomorrow, 18 October, Thursday

    Time Temperature Precipitation Wind Pressure Humidity
    00:00 +26°C° 0 mm 2 mps 656 mmHg 41%
    01:00 +25°C° 0 mm 2 mps 655 mmHg 43%
    02:00 +24°C° 0 mm 2 mps 654 mmHg 45%
    03:00 +24°C° 0 mm 2 mps 654 mmHg 46%
    04:00 +23°C° 0 mm 2 mps 655 mmHg 47%
    05:00 +23°C° 0 mm 2 mps 655 mmHg 49%
    06:00 +25°C° 0 mm 3 mps 656 mmHg 43%
    07:00 +28°C° 0 mm 4 mps 657 mmHg 37%
    08:00 +30°C° 0 mm 4 mps 658 mmHg 31%
    09:00 +33°C° 0 mm 4 mps 658 mmHg 27%
    10:00 +35°C° 0 mm 3 mps 658 mmHg 22%
    11:00 +38°C° 0 mm 3 mps 659 mmHg 17%
    12:00 +38°C° 0 mm 3 mps 658 mmHg 17%
    13:00 +38°C° 0 mm 3 mps 657 mmHg 16%
    14:00 +38°C° 0 mm 3 mps 656 mmHg 15%
    15:00 +37°C° 0 mm 3 mps 655 mmHg 16%
    16:00 +37°C° 0 mm 3 mps 655 mmHg 16%
    17:00 +37°C° 0 mm 3 mps 655 mmHg 16%
    18:00 +35°C° 0 mm 2 mps 655 mmHg 18%
    19:00 +32°C° 0 mm 2 mps 655 mmHg 20%
    20:00 +30°C° 0 mm 2 mps 656 mmHg 22%
    21:00 +29°C° 0 mm 2 mps 656 mmHg 24%
    22:00 +29°C° 0 mm 2 mps 656 mmHg 25%
    23:00 +28°C° 0 mm 2 mps 656 mmHg 27%

    19 October, Friday

    Time Temperature Precipitation Wind Pressure Humidity
    00:00 +27°C° 0 mm 2 mps 656 mmHg 28%
    01:00 +27°C° 0 mm 2 mps 655 mmHg 29%
    02:00 +26°C° 0 mm 2 mps 655 mmHg 30%
    03:00 +26°C° 0 mm 3 mps 655 mmHg 33%
    04:00 +26°C° 0 mm 3 mps 655 mmHg 36%
    05:00 +25°C° 0 mm 4 mps 656 mmHg 38%
    06:00 +27°C° 0 mm 4 mps 657 mmHg 39%
    07:00 +28°C° 0 mm 5 mps 658 mmHg 39%
    08:00 +29°C° 0 mm 5 mps 659 mmHg 39%
    09:00 +32°C° 0 mm 5 mps 659 mmHg 34%
    10:00 +34°C° 0 mm 5 mps 659 mmHg 28%
    11:00 +36°C° 0 mm 4 mps 659 mmHg 23%
    12:00 +36°C° 0 mm 4 mps 658 mmHg 23%
    13:00 +36°C° 0 mm 4 mps 657 mmHg 22%
    14:00 +36°C° 0 mm 3 mps 656 mmHg 22%
    15:00 +36°C° 0 mm 3 mps 656 mmHg 24%
    16:00 +35°C° 0 mm 3 mps 656 mmHg 25%
    17:00 +35°C° 0 mm 3 mps 656 mmHg 27%
    18:00 +33°C° 0 mm 3 mps 656 mmHg 30%
    19:00 +30°C° 0 mm 2 mps 657 mmHg 33%
    20:00 +29°C° 0 mm 2 mps 657 mmHg 36%
    21:00 +28°C° 0 mm 2 mps 657 mmHg 38%
    22:00 +27°C° 0 mm 2 mps 657 mmHg 40%
    23:00 +27°C° 0 mm 2 mps 657 mmHg 42%

    20 October, Saturday

    Time Temperature Precipitation Wind Pressure Humidity
    00:00 +26°C° 0 mm 3 mps 656 mmHg 45%
    01:00 +26°C° 0 mm 3 mps 656 mmHg 48%
    02:00 +25°C° 0 mm 3 mps 656 mmHg 51%
    03:00 +25°C° 0 mm 3 mps 656 mmHg 54%
    04:00 +24°C° 0 mm 3 mps 656 mmHg 57%
    05:00 +24°C° 0 mm 3 mps 656 mmHg 59%
    06:00 +26°C° 0 mm 3 mps 657 mmHg 54%
    07:00 +27°C° 0 mm 4 mps 658 mmHg 49%
    08:00 +28°C° 0 mm 4 mps 659 mmHg 44%
    09:00 +32°C° 0 mm 4 mps 659 mmHg 37%
    10:00 +34°C° 0 mm 3 mps 659 mmHg 30%
    11:00 +37°C° 0 mm 3 mps 659 mmHg 23%
    12:00 +37°C° 0 mm 3 mps 658 mmHg 22%
    13:00 +37°C° 0 mm 3 mps 658 mmHg 21%
    14:00 +37°C° 0 mm 3 mps 657 mmHg 20%
    15:00 +37°C° 0 mm 3 mps 657 mmHg 20%
    16:00 +37°C° 0 mm 3 mps 656 mmHg 20%
    17:00 +36°C° 0 mm 4 mps 656 mmHg 20%
    18:00 +34°C° 0 mm 3 mps 656 mmHg 24%
    19:00 +31°C° 0 mm 3 mps 656 mmHg 27%
    20:00 +29°C° 0 mm 2 mps 656 mmHg 31%
    21:00 +28°C° 0 mm 2 mps 656 mmHg 33%
    22:00 +28°C° 0 mm 2 mps 656 mmHg 35%
    23:00 +27°C° 0 mm 2 mps 656 mmHg 37%

    21 October, Sunday

    Time Temperature Precipitation Wind Pressure Humidity
    00:00 +26°C° 0 mm 2 mps 656 mmHg 39%
    01:00 +26°C° 0 mm 2 mps 655 mmHg 40%
    02:00 +25°C° 0 mm 2 mps 655 mmHg 41%
    03:00 +24°C° 0 mm 2 mps 655 mmHg 43%
    04:00 +24°C° 0 mm 2 mps 655 mmHg 45%
    05:00 +23°C° 0 mm 2 mps 655 mmHg 47%
    06:00 +26°C° 0 mm 2 mps 656 mmHg 42%
    07:00 +28°C° 0 mm 3 mps 657 mmHg 37%
    08:00 +30°C° 0 mm 4 mps 658 mmHg 32%
    09:00 +34°C° 0 mm 3 mps 658 mmHg 27%
    10:00 +36°C° 0 mm 3 mps 658 mmHg 22%
    11:00 +38°C° 0 mm 3 mps 659 mmHg 17%
    12:00 +38°C° 0 mm 3 mps 658 mmHg 17%
    13:00 +38°C° 0 mm 3 mps 657 mmHg 17%
    14:00 +38°C° 0 mm 4 mps 656 mmHg 17%
    15:00 +37°C° 0 mm 4 mps 656 mmHg 18%
    16:00 +36°C° 0 mm 3 mps 656 mmHg 20%
    17:00 +35°C° 0 mm 3 mps 656 mmHg 21%
    18:00 +34°C° 0.6 mm 4 mps 656 mmHg 27%
    19:00 +32°C° 0.6 mm 4 mps 656 mmHg 33%
    20:00 +29°C° 0.6 mm 4 mps 657 mmHg 39%
    21:00 +27°C° 0 mm 5 mps 657 mmHg 46%
    22:00 +26°C° 0 mm 6 mps 657 mmHg 54%
    23:00 +23°C° 0 mm 7 mps 657 mmHg 62%
    Show more